This is the latest recevied weather packets stored in our database for station/object N1ORT. If no packets are shown the sender has not sent any weather packets the latest 1 day(s).
| Time | Temp. | Humidity | Pressure | Rain* | Wind** | Luminosity | Snow |
|---|---|---|---|---|---|---|---|
| 1778017432 | 26.67° C | 37% | 1003.2 hPa | 0 mm | 1.34 m/s, 7° | 115 W/m² | - |
| 1778017129 | 26.67° C | 36% | 1003.2 hPa | 0 mm | 1.34 m/s, 236° | 117 W/m² | - |
| 1778016827 | 27.22° C | 37% | 1003.1 hPa | 0 mm | 1.79 m/s, 255° | 102 W/m² | - |
| 1778016523 | 27.22° C | 35% | 1003.2 hPa | 0 mm | 2.24 m/s, 83° | 145 W/m² | - |
| 1778016220 | 27.22° C | 36% | 1003 hPa | 0 mm | 2.24 m/s, 72° | 168 W/m² | - |
| 1778015916 | 26.67° C | 36% | 1003.3 hPa | 0 mm | 2.68 m/s, 266° | 100 W/m² | - |
| 1778015614 | 27.22° C | 35% | 1003.3 hPa | 0 mm | 0.89 m/s, 86° | 106 W/m² | - |
| 1778015310 | 27.78° C | 35% | 1003 hPa | 0 mm | 2.24 m/s, 352° | 149 W/m² | - |
| 1778015007 | 27.78° C | 36% | 1003 hPa | 0 mm | 0.89 m/s, 305° | 217 W/m² | - |
| 1778014704 | 27.22° C | 36% | 1003.1 hPa | 0 mm | 1.34 m/s, 358° | 289 W/m² | - |
| 1778014403 | 26.67° C | 36% | 1002.7 hPa | 0 mm | 2.68 m/s, 143° | 142 W/m² | - |
| 1778014099 | 27.22° C | 38% | 1003 hPa | 0 mm | 1.34 m/s, 227° | 131 W/m² | - |
| 1778013797 | 27.22° C | 36% | 1002.7 hPa | 0 mm | 2.68 m/s, 283° | 128 W/m² | - |
| 1778013494 | 27.78° C | 36% | 1002.8 hPa | 0 mm | 1.34 m/s, 47° | 275 W/m² | - |
| 1778013190 | 27.22° C | 37% | 1003 hPa | 0 mm | 4.47 m/s, 283° | 148 W/m² | - |
| 1778012887 | 27.78° C | 37% | 1002.8 hPa | 0 mm | 2.24 m/s, 260° | 272 W/m² | - |
| 1778012583 | 27.22° C | 36% | 1003 hPa | 0 mm | 2.24 m/s, 83° | 174 W/m² | - |
| 1778012280 | 27.78° C | 36% | 1003.1 hPa | 0 mm | 1.34 m/s, 274° | 108 W/m² | - |
| 1778011977 | 28.33° C | 37% | 1003.1 hPa | 0 mm | 1.79 m/s, 326° | 113 W/m² | - |
| 1778011675 | 28.33° C | 35% | 1003 hPa | 0 mm | 2.68 m/s, 124° | 170 W/m² | - |
| 1778011372 | 28.33° C | 35% | 1003 hPa | 0 mm | 1.34 m/s, 147° | 385 W/m² | - |
| 1778011067 | 28.89° C | 35% | 1003.1 hPa | 0 mm | 0.89 m/s, 240° | 561 W/m² | - |
| 1778010765 | 28.89° C | 33% | 1003.1 hPa | 0 mm | 3.13 m/s, 305° | 625 W/m² | - |
| 1778010462 | 28.89° C | 35% | 1003 hPa | 0 mm | 0.89 m/s, 84° | 612 W/m² | - |
| 1778010159 | 28.89° C | 36% | 1002.8 hPa | 0 mm | 1.34 m/s, 292° | 647 W/m² | - |
* Rain latest hour (hover to see other rain measurements)
** Current wind speed in m/s (hover to see current wind gust speed)